When you browse on this site, cookies collect data to enhance your experience and personalize the content and advertising you see.
Visit our Privacy Policy to learn more. By continuing to use the site, you agree to this use of cookies and data.
  • în România
  • Lista ţărilor
  • Pe 7 zile
  • Temperatura apei
  • Meteo pe hartă
  • Widget-uri
  • user-avatar
    Intrare

    Meteo pe oră la Rhodes

    Astăzi, 18 Septembrie, Miercuri

    Timp Temperatura Precipitaţii Vânt Presiune Umiditate
    00:00 +19°C° 0 mm 3 m/s 733 mmHg 61%
    01:00 +19°C° 0 mm 3 m/s 733 mmHg 62%
    02:00 +19°C° 0 mm 3 m/s 733 mmHg 62%
    03:00 +19°C° 0 mm 3 m/s 733 mmHg 64%
    04:00 +18°C° 0 mm 3 m/s 732 mmHg 66%
    05:00 +18°C° 0 mm 3 m/s 732 mmHg 68%
    06:00 +20°C° 0 mm 3 m/s 733 mmHg 60%
    07:00 +23°C° 0 mm 2 m/s 733 mmHg 53%
    08:00 +26°C° 0 mm 2 m/s 733 mmHg 45%
    09:00 +28°C° 0 mm 2 m/s 734 mmHg 39%
    10:00 +29°C° 0 mm 2 m/s 734 mmHg 34%
    11:00 +31°C° 0 mm 2 m/s 734 mmHg 29%
    12:00 +31°C° 0 mm 3 m/s 734 mmHg 30%
    13:00 +31°C° 0 mm 3 m/s 734 mmHg 30%
    14:00 +31°C° 0 mm 3 m/s 733 mmHg 31%
    15:00 +29°C° 0 mm 3 m/s 733 mmHg 34%
    16:00 +28°C° 0 mm 3 m/s 733 mmHg 37%
    17:00 +26°C° 0 mm 4 m/s 733 mmHg 40%
    18:00 +24°C° 0 mm 3 m/s 733 mmHg 45%
    19:00 +21°C° 0 mm 3 m/s 733 mmHg 49%
    20:00 +19°C° 0 mm 3 m/s 733 mmHg 54%
    21:00 +19°C° 0 mm 3 m/s 733 mmHg 58%
    22:00 +19°C° 0 mm 3 m/s 733 mmHg 63%
    23:00 +19°C° 0 mm 4 m/s 733 mmHg 68%

    Mâine, 19 Septembrie, Joi

    Timp Temperatura Precipitaţii Vânt Presiune Umiditate
    00:00 +18°C° 0 mm 4 m/s 733 mmHg 75%
    01:00 +18°C° 0 mm 4 m/s 733 mmHg 83%
    02:00 +18°C° 0 mm 4 m/s 733 mmHg 90%
    03:00 +18°C° 0 mm 4 m/s 733 mmHg 90%
    04:00 +18°C° 0 mm 4 m/s 732 mmHg 90%
    05:00 +18°C° 0 mm 3 m/s 732 mmHg 90%
    06:00 +20°C° 0 mm 4 m/s 732 mmHg 82%
    07:00 +22°C° 0 mm 4 m/s 732 mmHg 74%
    08:00 +23°C° 0 mm 4 m/s 733 mmHg 66%
    09:00 +26°C° 0 mm 4 m/s 733 mmHg 56%
    10:00 +28°C° 0 mm 4 m/s 733 mmHg 46%
    11:00 +30°C° 0 mm 4 m/s 733 mmHg 36%
    12:00 +30°C° 0 mm 5 m/s 732 mmHg 36%
    13:00 +30°C° 0 mm 5 m/s 732 mmHg 37%
    14:00 +30°C° 0 mm 5 m/s 732 mmHg 37%
    15:00 +28°C° 0 mm 6 m/s 732 mmHg 46%
    16:00 +27°C° 0 mm 6 m/s 732 mmHg 56%
    17:00 +26°C° 0 mm 7 m/s 731 mmHg 65%
    18:00 +23°C° 0 mm 6 m/s 732 mmHg 74%
    19:00 +21°C° 0 mm 6 m/s 732 mmHg 83%
    20:00 +20°C° 0 mm 5 m/s 732 mmHg 92%
    21:00 +19°C° 0 mm 5 m/s 732 mmHg 88%
    22:00 +19°C° 0 mm 5 m/s 732 mmHg 83%
    23:00 +17°C° 0 mm 5 m/s 732 mmHg 79%

    Poimâine, 20 Septembrie, Vineri

    Timp Temperatura Precipitaţii Vânt Presiune Umiditate
    00:00 +17°C° 0 mm 5 m/s 732 mmHg 81%
    01:00 +17°C° 0 mm 6 m/s 731 mmHg 83%
    02:00 +17°C° 0 mm 6 m/s 731 mmHg 85%
    03:00 +19°C° 0 mm 6 m/s 731 mmHg 87%
    04:00 +19°C° 0 mm 6 m/s 731 mmHg 89%
    05:00 +18°C° 0 mm 7 m/s 731 mmHg 91%
    06:00 +21°C° 0 mm 7 m/s 731 mmHg 81%
    07:00 +22°C° 0 mm 7 m/s 731 mmHg 72%
    08:00 +24°C° 0 mm 7 m/s 731 mmHg 63%
    09:00 +26°C° 0 mm 7 m/s 731 mmHg 55%
    10:00 +28°C° 0 mm 7 m/s 731 mmHg 47%
    11:00 +29°C° 0 mm 7 m/s 731 mmHg 38%
    12:00 +29°C° 0 mm 7 m/s 731 mmHg 37%
    13:00 +31°C° 0 mm 8 m/s 731 mmHg 37%
    14:00 +31°C° 0 mm 8 m/s 730 mmHg 36%
    15:00 +29°C° 0 mm 8 m/s 730 mmHg 40%
    16:00 +27°C° 0 mm 9 m/s 730 mmHg 45%
    17:00 +26°C° 0 mm 9 m/s 730 mmHg 49%
    18:00 +24°C° 0 mm 9 m/s 730 mmHg 56%
    19:00 +23°C° 0 mm 9 m/s 731 mmHg 63%
    20:00 +22°C° 0 mm 9 m/s 731 mmHg 71%
    21:00 +22°C° 0 mm 9 m/s 731 mmHg 70%
    22:00 +22°C° 0 mm 9 m/s 731 mmHg 70%
    23:00 +22°C° 0 mm 9 m/s 731 mmHg 70%

    21 Septembrie, Sâmbătă

    Timp Temperatura Precipitaţii Vânt Presiune Umiditate
    00:00 +21°C° 0 mm 8 m/s 730 mmHg 71%
    01:00 +21°C° 0 mm 8 m/s 730 mmHg 72%
    02:00 +20°C° 0 mm 8 m/s 730 mmHg 74%
    03:00 +20°C° 0 mm 8 m/s 730 mmHg 74%
    04:00 +20°C° 0 mm 7 m/s 730 mmHg 75%
    05:00 +18°C° 0 mm 7 m/s 730 mmHg 76%
    06:00 +21°C° 0 mm 7 m/s 730 mmHg 69%
    07:00 +22°C° 0 mm 6 m/s 731 mmHg 62%
    08:00 +23°C° 0 mm 5 m/s 731 mmHg 55%
    09:00 +26°C° 0 mm 5 m/s 731 mmHg 50%
    10:00 +27°C° 0 mm 5 m/s 731 mmHg 44%
    11:00 +29°C° 0 mm 5 m/s 731 mmHg 38%
    12:00 +29°C° 0 mm 5 m/s 731 mmHg 35%
    13:00 +30°C° 0 mm 5 m/s 731 mmHg 32%
    14:00 +32°C° 0 mm 6 m/s 731 mmHg 29%
    15:00 +30°C° 0 mm 6 m/s 731 mmHg 33%
    16:00 +28°C° 0 mm 6 m/s 731 mmHg 36%
    17:00 +27°C° 0 mm 7 m/s 730 mmHg 40%
    18:00 +26°C° 0 mm 6 m/s 731 mmHg 43%
    19:00 +24°C° 0 mm 6 m/s 731 mmHg 46%
    20:00 +22°C° 0 mm 6 m/s 731 mmHg 49%
    21:00 +22°C° 0 mm 5 m/s 731 mmHg 52%
    22:00 +21°C° 0 mm 5 m/s 731 mmHg 55%
    23:00 +21°C° 0 mm 5 m/s 731 mmHg 58%

    22 Septembrie, Duminică

    Timp Temperatura Precipitaţii Vânt Presiune Umiditate
    00:00 +20°C° 0 mm 5 m/s 732 mmHg 59%
    01:00 +20°C° 0 mm 4 m/s 732 mmHg 61%
    02:00 +19°C° 0 mm 4 m/s 732 mmHg 62%
    03:00 +19°C° 0 mm 4 m/s 732 mmHg 63%
    04:00 +18°C° 0 mm 4 m/s 732 mmHg 63%
    05:00 +17°C° 0 mm 3 m/s 732 mmHg 64%
    06:00 +19°C° 0 mm 3 m/s 732 mmHg 57%
    07:00 +21°C° 0 mm 3 m/s 732 mmHg 51%
    08:00 +24°C° 0 mm 2 m/s 732 mmHg 44%
    09:00 +25°C° 0 mm 2 m/s 733 mmHg 41%
    10:00 +27°C° 0 mm 2 m/s 733 mmHg 39%
    11:00 +29°C° 0 mm 2 m/s 733 mmHg 36%
    12:00 +29°C° 0 mm 3 m/s 733 mmHg 36%
    13:00 +29°C° 0 mm 3 m/s 733 mmHg 36%
    14:00 +30°C° 0 mm 4 m/s 732 mmHg 36%
    15:00 +28°C° 0 mm 4 m/s 732 mmHg 39%
    16:00 +27°C° 0 mm 4 m/s 732 mmHg 43%
    17:00 +25°C° 0 mm 4 m/s 732 mmHg 46%
    18:00 +22°C° 0 mm 4 m/s 732 mmHg 50%
    19:00 +20°C° 0 mm 4 m/s 732 mmHg 54%
    20:00 +18°C° 0 mm 3 m/s 733 mmHg 58%
    21:00 +18°C° 0 mm 3 m/s 733 mmHg 56%
    22:00 +19°C° 0 mm 3 m/s 733 mmHg 54%
    23:00 +19°C° 0 mm 2 m/s 732 mmHg 52%

    23 Septembrie, Luni

    Timp Temperatura Precipitaţii Vânt Presiune Umiditate
    00:00 +18°C° 0 mm 3 m/s 732 mmHg 53%
    01:00 +18°C° 0 mm 3 m/s 732 mmHg 55%
    02:00 +18°C° 0 mm 3 m/s 732 mmHg 56%
    03:00 +18°C° 0 mm 3 m/s 732 mmHg 60%
    04:00 +18°C° 0 mm 3 m/s 732 mmHg 65%
    05:00 +17°C° 0 mm 3 m/s 732 mmHg 69%
    06:00 +19°C° 0 mm 3 m/s 732 mmHg 61%
    07:00 +21°C° 0 mm 4 m/s 732 mmHg 53%
    08:00 +22°C° 0 mm 4 m/s 732 mmHg 45%
    09:00 +25°C° 0 mm 4 m/s 733 mmHg 38%
    10:00 +27°C° 0 mm 4 m/s 733 mmHg 32%
    11:00 +29°C° 0 mm 4 m/s 733 mmHg 26%
    12:00 +28°C° 0 mm 4 m/s 733 mmHg 26%
    13:00 +28°C° 0 mm 5 m/s 732 mmHg 27%
    14:00 +28°C° 0 mm 5 m/s 732 mmHg 27%
    15:00 +26°C° 0 mm 6 m/s 732 mmHg 33%
    16:00 +24°C° 0 mm 6 m/s 732 mmHg 39%
    17:00 +23°C° 0 mm 7 m/s 731 mmHg 45%
    18:00 +21°C° 0 mm 7 m/s 731 mmHg 54%
    19:00 +18°C° 0 mm 7 m/s 732 mmHg 63%
    20:00 +17°C° 0 mm 6 m/s 732 mmHg 72%
    21:00 +17°C° 0 mm 6 m/s 732 mmHg 74%
    22:00 +17°C° 0 mm 6 m/s 732 mmHg 77%
    23:00 +16°C° 0 mm 6 m/s 732 mmHg 80%
    Arată mai mult